Regional Weather Roundup
Issued by NWS

Home | Current Version | Previous Version | Graphics & Text | Print | Product List | Glossary On
Versions: 1 2 3 4 5 6 7 8 9 10 11 12 13 14 15 16 17 18 19 20 21 22 23 24 25 26 27 28 29 30 31 32 33 34 35 36 37 38 39 40 41 42 43 44 45 46 47 48 49 50
000
ASUS43 KFSD 281702
RWRSD

WEATHER ROUNDUP FOR SOUTH DAKOTA
NATIONAL WEATHER SERVICE SIOUX FALLS SD
1200 PM CDT FRI AUG 28 2015

NOTE: "FAIR" INDICATES FEW OR NO CLOUDS BELOW 12,000 FEET WITH NO
SIGNIFICANT WEATHER AND/OR OBSTRUCTIONS TO VISIBILITY.


SDZ001>005-009-010-012>017-281800-
NORTHWEST AND NORTH CENTRAL SOUTH DAKOTA

CITY           SKY/WX    TMP DP  RH WIND       PRES   REMARKS
BUFFALO          N/A     80  52  37 W14       29.96S
FAITH            N/A     74  62  66 S10       29.99S
MOBRIDGE       SUNNY     76  70  82 S7        29.94R
$$

SDZ012>016-024>037-041>051-057-063-072>074-281800-
SOUTHWEST AND SOUTH CENTRAL SOUTH DAKOTA

CITY           SKY/WX    TMP DP  RH WIND       PRES   REMARKS
RAPID CTY ARPT SUNNY     80  55  42 N12       30.06R
PIERRE         CLOUDY    72  66  81 S3        29.97S
CUSTER         SUNNY     75  46  35 N6        30.21R
ELLSWORTH AFB  SUNNY     81  49  33 N13       30.05R
PHILIP         CLOUDY    71  66  84 W6        30.01S
PINE RIDGE     SUNNY     76  55  48 W7        30.08R
WINNER         CLOUDY    70  66  87 NE6       30.00R
$$

SDZ004>011-016>023-039-040-281800-
NORTHEAST SOUTH DAKOTA

CITY           SKY/WX    TMP DP  RH WIND       PRES   REMARKS
ABERDEEN       CLOUDY    72  65  78 S6        29.96S
WATERTOWN      MOSUNNY   73  65  75 VRB7      29.99R
BROOKINGS      CLOUDY    72  63  73 E13       29.99S
$$

SDZ017-020-022-023-036>040-048>070-281800-
SOUTHEAST SOUTH DAKOTA

CITY           SKY/WX    TMP DP  RH WIND       PRES   REMARKS
SIOUX FALLS    CLOUDY    70  65  84 NE15      29.94S
HURON          MOSUNNY   74  64  71 VRB3      29.96R
CHAMBERLAIN    CLOUDY    70  64  83 CALM      29.98R
MITCHELL       PTSUNNY   73  66  78 NE7       29.96R
YANKTON        CLOUDY    68  64  88 NE16      29.91R
$$

ABBREVIATIONS USED IN REMARKS
   TC - TEMPERATURE IN CELSIUS
  WCI - WIND CHILL INDEX
   HX - HEAT INDEX
  VSB - VISIBILITY




USA.gov is the U.S. government's official web portal to all federal, state and local government web resources and services.